Regional Weather Roundup
Issued by NWS

Home | Current Version | Previous Version | Text Only | Print | Product List | Glossary On
Versions: 1 2 3 4 5 6 7 8 9 10 11 12 13 14 15 16 17 18 19 20 21 22 23 24 25 26 27
000
ASUS44 KJAN 230910
RWRMS

MISSISSIPPI HOURLY WEATHER ROUNDUP
NATIONAL WEATHER SERVICE JACKSON MS
300 AM CST FRI FEB 23 2018

NOTE: "FAIR: INDICATES FEW OR NO CLOUDS BELOW 12,000 FEET WITH NO
SIGNIFICANT WEATHER AND/OR OBSTRUCTIONS TO VISIBILITY.

MSZ001>002-007>008-010>013-018>021-025>028-034>036-231000-
NORTHWEST MISSISSIPPI

CITY           SKY/WX    TMP DP  RH WIND       PRES   REMARKS
BATESVILLE       N/A    N/A N/A N/A MISG        N/A
CLARKSDALE     CLOUDY    54  54 100 CALM      30.23F FOG
CLEVELAND      PTSUNNY   57  57 100 CALM      30.22F
GREENWOOD      FAIR      67  64  90 S12       30.23F
GREENVILLE     FAIR      58  55  90 SE3       30.20F
OXFORD         FAIR      64  61  88 S10       30.24F
TUNICA           N/A     52  52 100 SE3       30.23F FOG
WINONA         FAIR      66  65  98 S6        30.26S
$$

MSZ003>006-009-014>017-022>024-029>033-037>039-231000-
NORTHEAST MISSISSIPPI

CITY           SKY/WX    TMP DP  RH WIND       PRES   REMARKS
ABERDEEN       PTSUNNY   66  66 100 S8        30.29S
COLUMBUS AFB   FAIR      63  63 100 S3        30.27F
CORINTH        FAIR      63  63 100 S8        30.25F
GOLDN TRIANGLE FAIR      64  61  90 S8        30.29F
STARKVILLE     FAIR      64  61  88 S7        30.29F
TUPELO         FAIR      64  60  87 SE5       30.26F
$$

MSZ040-058-231000-
CENTRAL MISSISSIPPI

CITY           SKY/WX    TMP DP  RH WIND       PRES   REMARKS
JACKSON INTL   FAIR      64  63  96 SE7       30.26F
JACKSON HAWKNS FAIR      67  65  93 S9        30.26F
MADISON        FAIR      64  63  94 CALM      30.26F
MERIDIAN KEY   MOCLDY    65  64  97 S5        30.29F
MERIDIAN NAS   FAIR      66  63  90 SE3       30.29F
RAYMOND        FAIR      68  66  94 SE7G13    30.26F
VICKSBURG VKS    N/A    N/A N/A N/A MISG        N/A
$$

MSZ059>079-231000-
SOUTH MISSISSIPPI

CITY           SKY/WX    TMP DP  RH WIND       PRES   REMARKS
COLUMBIA       PTSUNNY   66  64  94 CALM      30.31F FOG
HATTIESBURG    FAIR      64  64 100 SE3       30.29F
LAUREL         PTSUNNY   65  65 100 S3        30.29F
MCCOMB         CLOUDY    70  66  87 SE8       30.26F
NATCHEZ        CLOUDY    71  67  87 SE9       30.24F
PINE BELT      MOCLDY    64  64 100 SE3       30.29F FOG
$$

MSZ080>082-231000-
COASTAL MISSISSIPPI

CITY           SKY/WX    TMP DP  RH WIND       PRES   REMARKS
BILOXI         MOCLDY    69  68  94 SE5       30.28F
PASCAGOULA     FOG       62  60  93 CALM      30.29S VSB 1/2
GULFPORT       CLOUDY    70  69  97 SE6       30.27F
$$

LAZ007>009-015>016-023>026-231000-
NORTHEAST LOUISIANA

CITY           SKY/WX    TMP DP  RH WIND       PRES   REMARKS
BASTROP        FAIR      62  62  98 CALM      30.21F FOG
TALLULAH/VBURG FAIR      68  67  96 S9        30.24F
VIDALIA        CLOUDY    71  67  89 SE8       30.23F
$$




USA.gov is the U.S. government's official web portal to all federal, state and local government web resources and services.